Index of /20260413/WXO-DD/model_gdps/15km/12/000
Name Last modified Size Description
Parent Directory -
20260413T12Z_MSC_GDPS_AbsoluteVorticity_IsbL-0200_LatLon0.15_PT000H.grib2 2026-04-13 16:09 1.2M
20260413T12Z_MSC_GDPS_AbsoluteVorticity_IsbL-0250_LatLon0.15_PT000H.grib2 2026-04-13 16:09 1.3M
20260413T12Z_MSC_GDPS_AbsoluteVorticity_IsbL-0500_LatLon0.15_PT000H.grib2 2026-04-13 16:09 1.2M
20260413T12Z_MSC_GDPS_AbsoluteVorticity_IsbL-0700_LatLon0.15_PT000H.grib2 2026-04-13 16:09 1.3M
20260413T12Z_MSC_GDPS_AbsoluteVorticity_IsbL-0850_LatLon0.15_PT000H.grib2 2026-04-13 16:09 1.6M
20260413T12Z_MSC_GDPS_AirTemp_AGL-120m_LatLon0.15_PT000H.grib2 2026-04-13 16:09 897K
20260413T12Z_MSC_GDPS_AirTemp_AGL-2m_LatLon0.15_PT000H.grib2 2026-04-13 16:09 1.0M
20260413T12Z_MSC_GDPS_AirTemp_AGL-40m_LatLon0.15_PT000H.grib2 2026-04-13 16:09 913K
20260413T12Z_MSC_GDPS_AirTemp_AGL-80m_LatLon0.15_PT000H.grib2 2026-04-13 16:09 904K
20260413T12Z_MSC_GDPS_AirTemp_IsbL-0001_LatLon0.15_PT000H.grib2 2026-04-13 16:09 641K
20260413T12Z_MSC_GDPS_AirTemp_IsbL-0005_LatLon0.15_PT000H.grib2 2026-04-13 16:09 681K
20260413T12Z_MSC_GDPS_AirTemp_IsbL-0010_LatLon0.15_PT000H.grib2 2026-04-13 16:09 758K
20260413T12Z_MSC_GDPS_AirTemp_IsbL-0020_LatLon0.15_PT000H.grib2 2026-04-13 16:09 703K
20260413T12Z_MSC_GDPS_AirTemp_IsbL-0030_LatLon0.15_PT000H.grib2 2026-04-13 16:09 749K
20260413T12Z_MSC_GDPS_AirTemp_IsbL-0050_LatLon0.15_PT000H.grib2 2026-04-13 16:09 815K
20260413T12Z_MSC_GDPS_AirTemp_IsbL-0100_LatLon0.15_PT000H.grib2 2026-04-13 16:09 940K
20260413T12Z_MSC_GDPS_AirTemp_IsbL-0150_LatLon0.15_PT000H.grib2 2026-04-13 16:09 1.0M
20260413T12Z_MSC_GDPS_AirTemp_IsbL-0175_LatLon0.15_PT000H.grib2 2026-04-13 16:09 956K
20260413T12Z_MSC_GDPS_AirTemp_IsbL-0200_LatLon0.15_PT000H.grib2 2026-04-13 16:09 972K
20260413T12Z_MSC_GDPS_AirTemp_IsbL-0225_LatLon0.15_PT000H.grib2 2026-04-13 16:09 1.0M
20260413T12Z_MSC_GDPS_AirTemp_IsbL-0250_LatLon0.15_PT000H.grib2 2026-04-13 16:09 1.0M
20260413T12Z_MSC_GDPS_AirTemp_IsbL-0275_LatLon0.15_PT000H.grib2 2026-04-13 16:09 1.0M
20260413T12Z_MSC_GDPS_AirTemp_IsbL-0300_LatLon0.15_PT000H.grib2 2026-04-13 16:09 960K
20260413T12Z_MSC_GDPS_AirTemp_IsbL-0350_LatLon0.15_PT000H.grib2 2026-04-13 16:09 938K
20260413T12Z_MSC_GDPS_AirTemp_IsbL-0400_LatLon0.15_PT000H.grib2 2026-04-13 16:09 951K
20260413T12Z_MSC_GDPS_AirTemp_IsbL-0450_LatLon0.15_PT000H.grib2 2026-04-13 16:09 973K
20260413T12Z_MSC_GDPS_AirTemp_IsbL-0500_LatLon0.15_PT000H.grib2 2026-04-13 16:09 1.0M
20260413T12Z_MSC_GDPS_AirTemp_IsbL-0550_LatLon0.15_PT000H.grib2 2026-04-13 16:09 1.0M
20260413T12Z_MSC_GDPS_AirTemp_IsbL-0600_LatLon0.15_PT000H.grib2 2026-04-13 16:09 906K
20260413T12Z_MSC_GDPS_AirTemp_IsbL-0650_LatLon0.15_PT000H.grib2 2026-04-13 16:09 927K
20260413T12Z_MSC_GDPS_AirTemp_IsbL-0700_LatLon0.15_PT000H.grib2 2026-04-13 16:09 961K
20260413T12Z_MSC_GDPS_AirTemp_IsbL-0750_LatLon0.15_PT000H.grib2 2026-04-13 16:09 1.0M
20260413T12Z_MSC_GDPS_AirTemp_IsbL-0800_LatLon0.15_PT000H.grib2 2026-04-13 16:09 1.1M
20260413T12Z_MSC_GDPS_AirTemp_IsbL-0850_LatLon0.15_PT000H.grib2 2026-04-13 16:09 1.1M
20260413T12Z_MSC_GDPS_AirTemp_IsbL-0875_LatLon0.15_PT000H.grib2 2026-04-13 16:09 1.2M
20260413T12Z_MSC_GDPS_AirTemp_IsbL-0900_LatLon0.15_PT000H.grib2 2026-04-13 16:09 1.1M
20260413T12Z_MSC_GDPS_AirTemp_IsbL-0925_LatLon0.15_PT000H.grib2 2026-04-13 16:09 1.1M
20260413T12Z_MSC_GDPS_AirTemp_IsbL-0950_LatLon0.15_PT000H.grib2 2026-04-13 16:09 1.1M
20260413T12Z_MSC_GDPS_AirTemp_IsbL-0970_LatLon0.15_PT000H.grib2 2026-04-13 16:09 1.1M
20260413T12Z_MSC_GDPS_AirTemp_IsbL-0985_LatLon0.15_PT000H.grib2 2026-04-13 16:09 1.1M
20260413T12Z_MSC_GDPS_AirTemp_IsbL-1000_LatLon0.15_PT000H.grib2 2026-04-13 16:09 1.1M
20260413T12Z_MSC_GDPS_AirTemp_IsbL-1015_LatLon0.15_PT000H.grib2 2026-04-13 16:09 1.1M
20260413T12Z_MSC_GDPS_Albedo_Sfc_LatLon0.15_PT000H.grib2 2026-04-13 16:09 247K
20260413T12Z_MSC_GDPS_CAPE_Sfc_LatLon0.15_PT000H.grib2 2026-04-13 16:09 3.8M
20260413T12Z_MSC_GDPS_CIN_Sfc_LatLon0.15_PT000H.grib2 2026-04-13 16:09 2.9M
20260413T12Z_MSC_GDPS_CloudWater_EAtm_LatLon0.15_PT000H.grib2 2026-04-13 16:09 522K
20260413T12Z_MSC_GDPS_ConvectivePrecip-Accum_Sfc_LatLon0.15_PT000H.grib2 2026-04-13 16:09 205
20260413T12Z_MSC_GDPS_DewPointDepression_AGL-2m_LatLon0.15_PT000H.grib2 2026-04-13 16:09 798K
20260413T12Z_MSC_GDPS_DewPointDepression_IsbL-0010_LatLon0.15_PT000H.grib2 2026-04-13 16:09 1.8K
20260413T12Z_MSC_GDPS_DewPointDepression_IsbL-0020_LatLon0.15_PT000H.grib2 2026-04-13 16:09 52K
20260413T12Z_MSC_GDPS_DewPointDepression_IsbL-0030_LatLon0.15_PT000H.grib2 2026-04-13 16:09 65K
20260413T12Z_MSC_GDPS_DewPointDepression_IsbL-0050_LatLon0.15_PT000H.grib2 2026-04-13 16:09 352K
20260413T12Z_MSC_GDPS_DewPointDepression_IsbL-0100_LatLon0.15_PT000H.grib2 2026-04-13 16:09 367K
20260413T12Z_MSC_GDPS_DewPointDepression_IsbL-0150_LatLon0.15_PT000H.grib2 2026-04-13 16:09 456K
20260413T12Z_MSC_GDPS_DewPointDepression_IsbL-0175_LatLon0.15_PT000H.grib2 2026-04-13 16:09 519K
20260413T12Z_MSC_GDPS_DewPointDepression_IsbL-0200_LatLon0.15_PT000H.grib2 2026-04-13 16:09 621K
20260413T12Z_MSC_GDPS_DewPointDepression_IsbL-0225_LatLon0.15_PT000H.grib2 2026-04-13 16:09 766K
20260413T12Z_MSC_GDPS_DewPointDepression_IsbL-0250_LatLon0.15_PT000H.grib2 2026-04-13 16:09 875K
20260413T12Z_MSC_GDPS_DewPointDepression_IsbL-0275_LatLon0.15_PT000H.grib2 2026-04-13 16:09 899K
20260413T12Z_MSC_GDPS_DewPointDepression_IsbL-0300_LatLon0.15_PT000H.grib2 2026-04-13 16:09 937K
20260413T12Z_MSC_GDPS_DewPointDepression_IsbL-0350_LatLon0.15_PT000H.grib2 2026-04-13 16:09 963K
20260413T12Z_MSC_GDPS_DewPointDepression_IsbL-0400_LatLon0.15_PT000H.grib2 2026-04-13 16:09 1.0M
20260413T12Z_MSC_GDPS_DewPointDepression_IsbL-0450_LatLon0.15_PT000H.grib2 2026-04-13 16:09 1.0M
20260413T12Z_MSC_GDPS_DewPointDepression_IsbL-0500_LatLon0.15_PT000H.grib2 2026-04-13 16:09 1.0M
20260413T12Z_MSC_GDPS_DewPointDepression_IsbL-0550_LatLon0.15_PT000H.grib2 2026-04-13 16:09 1.0M
20260413T12Z_MSC_GDPS_DewPointDepression_IsbL-0600_LatLon0.15_PT000H.grib2 2026-04-13 16:09 1.0M
20260413T12Z_MSC_GDPS_DewPointDepression_IsbL-0650_LatLon0.15_PT000H.grib2 2026-04-13 16:09 1.1M
20260413T12Z_MSC_GDPS_DewPointDepression_IsbL-0700_LatLon0.15_PT000H.grib2 2026-04-13 16:09 1.1M
20260413T12Z_MSC_GDPS_DewPointDepression_IsbL-0750_LatLon0.15_PT000H.grib2 2026-04-13 16:09 1.1M
20260413T12Z_MSC_GDPS_DewPointDepression_IsbL-0800_LatLon0.15_PT000H.grib2 2026-04-13 16:09 1.2M
20260413T12Z_MSC_GDPS_DewPointDepression_IsbL-0850_LatLon0.15_PT000H.grib2 2026-04-13 16:09 1.2M
20260413T12Z_MSC_GDPS_DewPointDepression_IsbL-0875_LatLon0.15_PT000H.grib2 2026-04-13 16:09 1.1M
20260413T12Z_MSC_GDPS_DewPointDepression_IsbL-0900_LatLon0.15_PT000H.grib2 2026-04-13 16:09 1.1M
20260413T12Z_MSC_GDPS_DewPointDepression_IsbL-0925_LatLon0.15_PT000H.grib2 2026-04-13 16:09 1.0M
20260413T12Z_MSC_GDPS_DewPointDepression_IsbL-0950_LatLon0.15_PT000H.grib2 2026-04-13 16:09 1.0M
20260413T12Z_MSC_GDPS_DewPointDepression_IsbL-0970_LatLon0.15_PT000H.grib2 2026-04-13 16:09 1.0M
20260413T12Z_MSC_GDPS_DewPointDepression_IsbL-0985_LatLon0.15_PT000H.grib2 2026-04-13 16:09 1.0M
20260413T12Z_MSC_GDPS_DewPointDepression_IsbL-1000_LatLon0.15_PT000H.grib2 2026-04-13 16:09 965K
20260413T12Z_MSC_GDPS_DewPointDepression_IsbL-1015_LatLon0.15_PT000H.grib2 2026-04-13 16:09 938K
20260413T12Z_MSC_GDPS_DewPoint_AGL-2m_LatLon0.15_PT000H.grib2 2026-04-13 16:09 637K
20260413T12Z_MSC_GDPS_DownwardLongwaveRadiationFlux-Accum_Sfc_LatLon0.15_PT000H.grib2 2026-04-13 16:09 205
20260413T12Z_MSC_GDPS_DownwardShortwaveRadiationFlux-Accum_NTAtm_LatLon0.15_PT000H.grib2 2026-04-13 16:09 205
20260413T12Z_MSC_GDPS_DownwardShortwaveRadiationFlux-Accum_Sfc_LatLon0.15_PT000H.grib2 2026-04-13 16:09 205
20260413T12Z_MSC_GDPS_GeopotentialHeight_IsbL-0001_LatLon0.15_PT000H.grib2 2026-04-13 16:09 553K
20260413T12Z_MSC_GDPS_GeopotentialHeight_IsbL-0005_LatLon0.15_PT000H.grib2 2026-04-13 16:09 464K
20260413T12Z_MSC_GDPS_GeopotentialHeight_IsbL-0010_LatLon0.15_PT000H.grib2 2026-04-13 16:09 606K
20260413T12Z_MSC_GDPS_GeopotentialHeight_IsbL-0020_LatLon0.15_PT000H.grib2 2026-04-13 16:09 605K
20260413T12Z_MSC_GDPS_GeopotentialHeight_IsbL-0030_LatLon0.15_PT000H.grib2 2026-04-13 16:09 608K
20260413T12Z_MSC_GDPS_GeopotentialHeight_IsbL-0050_LatLon0.15_PT000H.grib2 2026-04-13 16:09 604K
20260413T12Z_MSC_GDPS_GeopotentialHeight_IsbL-0100_LatLon0.15_PT000H.grib2 2026-04-13 16:09 634K
20260413T12Z_MSC_GDPS_GeopotentialHeight_IsbL-0150_LatLon0.15_PT000H.grib2 2026-04-13 16:09 651K
20260413T12Z_MSC_GDPS_GeopotentialHeight_IsbL-0175_LatLon0.15_PT000H.grib2 2026-04-13 16:09 654K
20260413T12Z_MSC_GDPS_GeopotentialHeight_IsbL-0200_LatLon0.15_PT000H.grib2 2026-04-13 16:09 658K
20260413T12Z_MSC_GDPS_GeopotentialHeight_IsbL-0225_LatLon0.15_PT000H.grib2 2026-04-13 16:09 661K
20260413T12Z_MSC_GDPS_GeopotentialHeight_IsbL-0250_LatLon0.15_PT000H.grib2 2026-04-13 16:09 659K
20260413T12Z_MSC_GDPS_GeopotentialHeight_IsbL-0275_LatLon0.15_PT000H.grib2 2026-04-13 16:09 661K
20260413T12Z_MSC_GDPS_GeopotentialHeight_IsbL-0300_LatLon0.15_PT000H.grib2 2026-04-13 16:09 652K
20260413T12Z_MSC_GDPS_GeopotentialHeight_IsbL-0350_LatLon0.15_PT000H.grib2 2026-04-13 16:09 649K
20260413T12Z_MSC_GDPS_GeopotentialHeight_IsbL-0400_LatLon0.15_PT000H.grib2 2026-04-13 16:09 641K
20260413T12Z_MSC_GDPS_GeopotentialHeight_IsbL-0450_LatLon0.15_PT000H.grib2 2026-04-13 16:09 561K
20260413T12Z_MSC_GDPS_GeopotentialHeight_IsbL-0500_LatLon0.15_PT000H.grib2 2026-04-13 16:09 549K
20260413T12Z_MSC_GDPS_GeopotentialHeight_IsbL-0550_LatLon0.15_PT000H.grib2 2026-04-13 16:09 544K
20260413T12Z_MSC_GDPS_GeopotentialHeight_IsbL-0600_LatLon0.15_PT000H.grib2 2026-04-13 16:09 712K
20260413T12Z_MSC_GDPS_GeopotentialHeight_IsbL-0650_LatLon0.15_PT000H.grib2 2026-04-13 16:09 713K
20260413T12Z_MSC_GDPS_GeopotentialHeight_IsbL-0700_LatLon0.15_PT000H.grib2 2026-04-13 16:09 715K
20260413T12Z_MSC_GDPS_GeopotentialHeight_IsbL-0750_LatLon0.15_PT000H.grib2 2026-04-13 16:09 715K
20260413T12Z_MSC_GDPS_GeopotentialHeight_IsbL-0800_LatLon0.15_PT000H.grib2 2026-04-13 16:09 725K
20260413T12Z_MSC_GDPS_GeopotentialHeight_IsbL-0850_LatLon0.15_PT000H.grib2 2026-04-13 16:09 726K
20260413T12Z_MSC_GDPS_GeopotentialHeight_IsbL-0875_LatLon0.15_PT000H.grib2 2026-04-13 16:09 731K
20260413T12Z_MSC_GDPS_GeopotentialHeight_IsbL-0900_LatLon0.15_PT000H.grib2 2026-04-13 16:09 733K
20260413T12Z_MSC_GDPS_GeopotentialHeight_IsbL-0925_LatLon0.15_PT000H.grib2 2026-04-13 16:09 739K
20260413T12Z_MSC_GDPS_GeopotentialHeight_IsbL-0950_LatLon0.15_PT000H.grib2 2026-04-13 16:09 744K
20260413T12Z_MSC_GDPS_GeopotentialHeight_IsbL-0970_LatLon0.15_PT000H.grib2 2026-04-13 16:09 754K
20260413T12Z_MSC_GDPS_GeopotentialHeight_IsbL-0985_LatLon0.15_PT000H.grib2 2026-04-13 16:09 768K
20260413T12Z_MSC_GDPS_GeopotentialHeight_IsbL-1000_LatLon0.15_PT000H.grib2 2026-04-13 16:09 786K
20260413T12Z_MSC_GDPS_GeopotentialHeight_IsbL-1015_LatLon0.15_PT000H.grib2 2026-04-13 16:09 806K
20260413T12Z_MSC_GDPS_GeopotentialHeight_Sfc_LatLon0.15_PT000H.grib2 2026-04-13 16:09 707K
20260413T12Z_MSC_GDPS_Humidex_Sfc_LatLon0.15_PT000H.grib2 2026-04-13 16:09 5.4M
20260413T12Z_MSC_GDPS_KIndex_Sfc_LatLon0.15_PT000H.grib2 2026-04-13 16:09 6.5M
20260413T12Z_MSC_GDPS_LandWaterProportion_Sfc_LatLon0.15_PT000H.grib2 2026-04-13 16:09 239K
20260413T12Z_MSC_GDPS_LatentHeatNetFlux_Sfc_LatLon0.15_PT000H.grib2 2026-04-13 16:09 762K
20260413T12Z_MSC_GDPS_LiftedIndex-MU-VT_IsbL-0500_LatLon0.15_PT000H.grib2 2026-04-13 16:09 5.4M
20260413T12Z_MSC_GDPS_NetLongwaveRadiationFlux-Accum_Sfc_LatLon0.15_PT000H.grib2 2026-04-13 16:09 205
20260413T12Z_MSC_GDPS_NetShortwaveRadiationFlux-Accum_Sfc_LatLon0.15_PT000H.grib2 2026-04-13 16:09 205
20260413T12Z_MSC_GDPS_O3MixingRatio_LatLon0.15_PT000H.grib2 2026-04-13 17:05 2.1M
20260413T12Z_MSC_GDPS_O3_EAtm_LatLon0.15_PT000H.grib2 2026-04-13 17:05 2.1M
20260413T12Z_MSC_GDPS_PlanetaryBoundaryLayerHeight_Sfc_LatLon0.15_PT000H.grib2 2026-04-13 16:09 2.4M
20260413T12Z_MSC_GDPS_PrecipType-Instant_Sfc_LatLon0.15_PT000H.grib2 2026-04-13 16:09 181
20260413T12Z_MSC_GDPS_Pressure_MSL_LatLon0.15_PT000H.grib2 2026-04-13 16:09 825K
20260413T12Z_MSC_GDPS_Pressure_PVU-1.5_LatLon0.15_PT000H.grib2 2026-04-13 16:09 5.7M
20260413T12Z_MSC_GDPS_Pressure_PVU-1_LatLon0.15_PT000H.grib2 2026-04-13 16:09 6.0M
20260413T12Z_MSC_GDPS_Pressure_PVU-2_LatLon0.15_PT000H.grib2 2026-04-13 16:09 5.6M
20260413T12Z_MSC_GDPS_Pressure_Sfc_LatLon0.15_PT000H.grib2 2026-04-13 16:09 1.1M
20260413T12Z_MSC_GDPS_RadiativeTemp_Sfc_LatLon0.15_PT000H.grib2 2026-04-13 16:09 480K
20260413T12Z_MSC_GDPS_RelativeHumidity_AGL-2m_LatLon0.15_PT000H.grib2 2026-04-13 16:09 1.1M
20260413T12Z_MSC_GDPS_RelativeHumidity_IsbL-0010_LatLon0.15_PT000H.grib2 2026-04-13 16:09 255K
20260413T12Z_MSC_GDPS_RelativeHumidity_IsbL-0020_LatLon0.15_PT000H.grib2 2026-04-13 16:09 273K
20260413T12Z_MSC_GDPS_RelativeHumidity_IsbL-0030_LatLon0.15_PT000H.grib2 2026-04-13 16:09 535K
20260413T12Z_MSC_GDPS_RelativeHumidity_IsbL-0050_LatLon0.15_PT000H.grib2 2026-04-13 16:09 325K
20260413T12Z_MSC_GDPS_RelativeHumidity_IsbL-0100_LatLon0.15_PT000H.grib2 2026-04-13 16:09 497K
20260413T12Z_MSC_GDPS_RelativeHumidity_IsbL-0150_LatLon0.15_PT000H.grib2 2026-04-13 16:09 645K
20260413T12Z_MSC_GDPS_RelativeHumidity_IsbL-0175_LatLon0.15_PT000H.grib2 2026-04-13 16:09 748K
20260413T12Z_MSC_GDPS_RelativeHumidity_IsbL-0200_LatLon0.15_PT000H.grib2 2026-04-13 16:09 661K
20260413T12Z_MSC_GDPS_RelativeHumidity_IsbL-0225_LatLon0.15_PT000H.grib2 2026-04-13 16:09 758K
20260413T12Z_MSC_GDPS_RelativeHumidity_IsbL-0250_LatLon0.15_PT000H.grib2 2026-04-13 16:09 849K
20260413T12Z_MSC_GDPS_RelativeHumidity_IsbL-0275_LatLon0.15_PT000H.grib2 2026-04-13 16:09 875K
20260413T12Z_MSC_GDPS_RelativeHumidity_IsbL-0300_LatLon0.15_PT000H.grib2 2026-04-13 16:09 921K
20260413T12Z_MSC_GDPS_RelativeHumidity_IsbL-0350_LatLon0.15_PT000H.grib2 2026-04-13 16:09 946K
20260413T12Z_MSC_GDPS_RelativeHumidity_IsbL-0400_LatLon0.15_PT000H.grib2 2026-04-13 16:09 1.0M
20260413T12Z_MSC_GDPS_RelativeHumidity_IsbL-0450_LatLon0.15_PT000H.grib2 2026-04-13 16:09 1.0M
20260413T12Z_MSC_GDPS_RelativeHumidity_IsbL-0500_LatLon0.15_PT000H.grib2 2026-04-13 16:09 1.0M
20260413T12Z_MSC_GDPS_RelativeHumidity_IsbL-0550_LatLon0.15_PT000H.grib2 2026-04-13 16:09 1.1M
20260413T12Z_MSC_GDPS_RelativeHumidity_IsbL-0600_LatLon0.15_PT000H.grib2 2026-04-13 16:09 1.1M
20260413T12Z_MSC_GDPS_RelativeHumidity_IsbL-0650_LatLon0.15_PT000H.grib2 2026-04-13 16:09 1.1M
20260413T12Z_MSC_GDPS_RelativeHumidity_IsbL-0700_LatLon0.15_PT000H.grib2 2026-04-13 16:09 1.1M
20260413T12Z_MSC_GDPS_RelativeHumidity_IsbL-0750_LatLon0.15_PT000H.grib2 2026-04-13 16:09 1.2M
20260413T12Z_MSC_GDPS_RelativeHumidity_IsbL-0800_LatLon0.15_PT000H.grib2 2026-04-13 16:09 1.3M
20260413T12Z_MSC_GDPS_RelativeHumidity_IsbL-0850_LatLon0.15_PT000H.grib2 2026-04-13 16:09 1.3M
20260413T12Z_MSC_GDPS_RelativeHumidity_IsbL-0875_LatLon0.15_PT000H.grib2 2026-04-13 16:09 1.3M
20260413T12Z_MSC_GDPS_RelativeHumidity_IsbL-0900_LatLon0.15_PT000H.grib2 2026-04-13 16:09 1.2M
20260413T12Z_MSC_GDPS_RelativeHumidity_IsbL-0925_LatLon0.15_PT000H.grib2 2026-04-13 16:09 1.2M
20260413T12Z_MSC_GDPS_RelativeHumidity_IsbL-0950_LatLon0.15_PT000H.grib2 2026-04-13 16:09 1.2M
20260413T12Z_MSC_GDPS_RelativeHumidity_IsbL-0970_LatLon0.15_PT000H.grib2 2026-04-13 16:09 1.2M
20260413T12Z_MSC_GDPS_RelativeHumidity_IsbL-0985_LatLon0.15_PT000H.grib2 2026-04-13 16:09 1.1M
20260413T12Z_MSC_GDPS_RelativeHumidity_IsbL-1000_LatLon0.15_PT000H.grib2 2026-04-13 16:09 1.1M
20260413T12Z_MSC_GDPS_RelativeHumidity_IsbL-1015_LatLon0.15_PT000H.grib2 2026-04-13 16:09 1.1M
20260413T12Z_MSC_GDPS_RelativeVorticity_IsbL-0200_LatLon0.15_PT000H.grib2 2026-04-13 16:09 1.2M
20260413T12Z_MSC_GDPS_RelativeVorticity_IsbL-0250_LatLon0.15_PT000H.grib2 2026-04-13 16:09 1.3M
20260413T12Z_MSC_GDPS_RelativeVorticity_IsbL-0500_LatLon0.15_PT000H.grib2 2026-04-13 16:09 1.2M
20260413T12Z_MSC_GDPS_RelativeVorticity_IsbL-0700_LatLon0.15_PT000H.grib2 2026-04-13 16:09 1.3M
20260413T12Z_MSC_GDPS_RelativeVorticity_IsbL-0850_LatLon0.15_PT000H.grib2 2026-04-13 16:09 1.6M
20260413T12Z_MSC_GDPS_Runoff-Accum_Sfc_LatLon0.15_PT000H.grib2 2026-04-13 16:09 181
20260413T12Z_MSC_GDPS_SeaIceFraction_Sfc_LatLon0.15_PT000H.grib2 2026-04-13 16:09 274K
20260413T12Z_MSC_GDPS_SeaWaterTemp_Sfc_LatLon0.15_PT000H.grib2 2026-04-13 16:09 902K
20260413T12Z_MSC_GDPS_SensibleHeatNetFlux_Sfc_LatLon0.15_PT000H.grib2 2026-04-13 16:09 661K
20260413T12Z_MSC_GDPS_ShowalterIndex_IsbL-0500_LatLon0.15_PT000H.grib2 2026-04-13 16:09 6.2M
20260413T12Z_MSC_GDPS_SnowDensity_Sfc_LatLon0.15_PT000H.grib2 2026-04-13 16:09 252K
20260413T12Z_MSC_GDPS_SnowDepth_Sfc_LatLon0.15_PT000H.grib2 2026-04-13 16:09 1.7M
20260413T12Z_MSC_GDPS_SoilTemp_DBS-0to10cm_LatLon0.15_PT000H.grib2 2026-04-13 16:09 487K
20260413T12Z_MSC_GDPS_SoilTemp_Sfc_LatLon0.15_PT000H.grib2 2026-04-13 16:09 548K
20260413T12Z_MSC_GDPS_SoilVolumetricIceContent_Sfc_LatLon0.15_PT000H.grib2 2026-04-13 16:09 228K
20260413T12Z_MSC_GDPS_SoilVolumetricWaterContent_DBS-0to10cm_LatLon0.15_PT000H.grib2 2026-04-13 16:09 491K
20260413T12Z_MSC_GDPS_SoilVolumetricWaterContent_DBS-0to1cm_LatLon0.15_PT000H.grib2 2026-04-13 16:09 550K
20260413T12Z_MSC_GDPS_SpecificHumidity_AGL-120m_LatLon0.15_PT000H.grib2 2026-04-13 16:09 1.1M
20260413T12Z_MSC_GDPS_SpecificHumidity_AGL-2m_LatLon0.15_PT000H.grib2 2026-04-13 16:09 1.3M
20260413T12Z_MSC_GDPS_SpecificHumidity_AGL-40m_LatLon0.15_PT000H.grib2 2026-04-13 16:09 1.1M
20260413T12Z_MSC_GDPS_SpecificHumidity_AGL-80m_LatLon0.15_PT000H.grib2 2026-04-13 16:09 1.1M
20260413T12Z_MSC_GDPS_SpecificHumidity_IsbL-0001_LatLon0.15_PT000H.grib2 2026-04-13 16:09 1.3M
20260413T12Z_MSC_GDPS_SpecificHumidity_IsbL-0005_LatLon0.15_PT000H.grib2 2026-04-13 16:09 1.3M
20260413T12Z_MSC_GDPS_SpecificHumidity_IsbL-0010_LatLon0.15_PT000H.grib2 2026-04-13 16:09 1.4M
20260413T12Z_MSC_GDPS_SpecificHumidity_IsbL-0020_LatLon0.15_PT000H.grib2 2026-04-13 16:09 1.4M
20260413T12Z_MSC_GDPS_SpecificHumidity_IsbL-0030_LatLon0.15_PT000H.grib2 2026-04-13 16:09 1.4M
20260413T12Z_MSC_GDPS_SpecificHumidity_IsbL-0050_LatLon0.15_PT000H.grib2 2026-04-13 16:09 1.8M
20260413T12Z_MSC_GDPS_SpecificHumidity_IsbL-0100_LatLon0.15_PT000H.grib2 2026-04-13 16:09 1.3M
20260413T12Z_MSC_GDPS_SpecificHumidity_IsbL-0150_LatLon0.15_PT000H.grib2 2026-04-13 16:09 1.4M
20260413T12Z_MSC_GDPS_SpecificHumidity_IsbL-0175_LatLon0.15_PT000H.grib2 2026-04-13 16:09 1.0M
20260413T12Z_MSC_GDPS_SpecificHumidity_IsbL-0200_LatLon0.15_PT000H.grib2 2026-04-13 16:09 1.0M
20260413T12Z_MSC_GDPS_SpecificHumidity_IsbL-0225_LatLon0.15_PT000H.grib2 2026-04-13 16:09 1.2M
20260413T12Z_MSC_GDPS_SpecificHumidity_IsbL-0250_LatLon0.15_PT000H.grib2 2026-04-13 16:09 1.2M
20260413T12Z_MSC_GDPS_SpecificHumidity_IsbL-0275_LatLon0.15_PT000H.grib2 2026-04-13 16:09 1.1M
20260413T12Z_MSC_GDPS_SpecificHumidity_IsbL-0300_LatLon0.15_PT000H.grib2 2026-04-13 16:09 1.2M
20260413T12Z_MSC_GDPS_SpecificHumidity_IsbL-0350_LatLon0.15_PT000H.grib2 2026-04-13 16:09 1.2M
20260413T12Z_MSC_GDPS_SpecificHumidity_IsbL-0400_LatLon0.15_PT000H.grib2 2026-04-13 16:09 1.4M
20260413T12Z_MSC_GDPS_SpecificHumidity_IsbL-0450_LatLon0.15_PT000H.grib2 2026-04-13 16:09 1.3M
20260413T12Z_MSC_GDPS_SpecificHumidity_IsbL-0500_LatLon0.15_PT000H.grib2 2026-04-13 16:09 1.4M
20260413T12Z_MSC_GDPS_SpecificHumidity_IsbL-0550_LatLon0.15_PT000H.grib2 2026-04-13 16:09 1.6M
20260413T12Z_MSC_GDPS_SpecificHumidity_IsbL-0600_LatLon0.15_PT000H.grib2 2026-04-13 16:09 1.4M
20260413T12Z_MSC_GDPS_SpecificHumidity_IsbL-0650_LatLon0.15_PT000H.grib2 2026-04-13 16:09 1.5M
20260413T12Z_MSC_GDPS_SpecificHumidity_IsbL-0700_LatLon0.15_PT000H.grib2 2026-04-13 16:09 1.6M
20260413T12Z_MSC_GDPS_SpecificHumidity_IsbL-0750_LatLon0.15_PT000H.grib2 2026-04-13 16:09 1.7M
20260413T12Z_MSC_GDPS_SpecificHumidity_IsbL-0800_LatLon0.15_PT000H.grib2 2026-04-13 16:09 1.8M
20260413T12Z_MSC_GDPS_SpecificHumidity_IsbL-0850_LatLon0.15_PT000H.grib2 2026-04-13 16:09 1.9M
20260413T12Z_MSC_GDPS_SpecificHumidity_IsbL-0875_LatLon0.15_PT000H.grib2 2026-04-13 16:09 1.9M
20260413T12Z_MSC_GDPS_SpecificHumidity_IsbL-0900_LatLon0.15_PT000H.grib2 2026-04-13 16:09 1.6M
20260413T12Z_MSC_GDPS_SpecificHumidity_IsbL-0925_LatLon0.15_PT000H.grib2 2026-04-13 16:09 1.6M
20260413T12Z_MSC_GDPS_SpecificHumidity_IsbL-0950_LatLon0.15_PT000H.grib2 2026-04-13 16:09 1.5M
20260413T12Z_MSC_GDPS_SpecificHumidity_IsbL-0970_LatLon0.15_PT000H.grib2 2026-04-13 16:09 1.5M
20260413T12Z_MSC_GDPS_SpecificHumidity_IsbL-0985_LatLon0.15_PT000H.grib2 2026-04-13 16:09 1.5M
20260413T12Z_MSC_GDPS_SpecificHumidity_IsbL-1000_LatLon0.15_PT000H.grib2 2026-04-13 16:09 1.5M
20260413T12Z_MSC_GDPS_SpecificHumidity_IsbL-1015_LatLon0.15_PT000H.grib2 2026-04-13 16:09 1.5M
20260413T12Z_MSC_GDPS_SpecificHumidity_Sfc_LatLon0.15_PT000H.grib2 2026-04-13 16:09 654K
20260413T12Z_MSC_GDPS_Thickness_IsbL-0850to0700_LatLon0.15_PT000H.grib2 2026-04-13 16:09 474K
20260413T12Z_MSC_GDPS_Thickness_IsbL-1000to0500_LatLon0.15_PT000H.grib2 2026-04-13 16:09 375K
20260413T12Z_MSC_GDPS_Thickness_IsbL-1000to0850_LatLon0.15_PT000H.grib2 2026-04-13 16:09 487K
20260413T12Z_MSC_GDPS_TotalCloudCover_Sfc_LatLon0.15_PT000H.grib2 2026-04-13 16:09 781K
20260413T12Z_MSC_GDPS_TotalTotalsIndex_Sfc_LatLon0.15_PT000H.grib2 2026-04-13 16:09 6.2M
20260413T12Z_MSC_GDPS_UVIndex-ClearSky_Sfc_LatLon0.15_PT000H.grib2 2026-04-13 17:05 1.0M
20260413T12Z_MSC_GDPS_UVIndex_Sfc_LatLon0.15_PT000H.grib2 2026-04-13 17:05 1.4M
20260413T12Z_MSC_GDPS_UpwardLongwaveRadiationFlux_NTAtm_LatLon0.15_PT000H.grib2 2026-04-13 16:09 882K
20260413T12Z_MSC_GDPS_VerticalVelocity_IsbL-0200_LatLon0.15_PT000H.grib2 2026-04-13 16:09 1.1M
20260413T12Z_MSC_GDPS_VerticalVelocity_IsbL-0250_LatLon0.15_PT000H.grib2 2026-04-13 16:09 1.0M
20260413T12Z_MSC_GDPS_VerticalVelocity_IsbL-0500_LatLon0.15_PT000H.grib2 2026-04-13 16:09 1.0M
20260413T12Z_MSC_GDPS_VerticalVelocity_IsbL-0600_LatLon0.15_PT000H.grib2 2026-04-13 16:09 1.1M
20260413T12Z_MSC_GDPS_VerticalVelocity_IsbL-0700_LatLon0.15_PT000H.grib2 2026-04-13 16:09 1.2M
20260413T12Z_MSC_GDPS_VerticalVelocity_IsbL-0850_LatLon0.15_PT000H.grib2 2026-04-13 16:09 1.3M
20260413T12Z_MSC_GDPS_WindChill_Sfc_LatLon0.15_PT000H.grib2 2026-04-13 16:09 5.5M
20260413T12Z_MSC_GDPS_WindDir_AGL-10m_LatLon0.15_PT000H.grib2 2026-04-13 16:09 1.4M
20260413T12Z_MSC_GDPS_WindDir_AGL-120m_LatLon0.15_PT000H.grib2 2026-04-13 16:09 1.3M
20260413T12Z_MSC_GDPS_WindDir_AGL-40m_LatLon0.15_PT000H.grib2 2026-04-13 16:09 1.4M
20260413T12Z_MSC_GDPS_WindDir_AGL-80m_LatLon0.15_PT000H.grib2 2026-04-13 16:09 1.4M
20260413T12Z_MSC_GDPS_WindDir_IsbL-0001_LatLon0.15_PT000H.grib2 2026-04-13 16:09 627K
20260413T12Z_MSC_GDPS_WindDir_IsbL-0005_LatLon0.15_PT000H.grib2 2026-04-13 16:09 778K
20260413T12Z_MSC_GDPS_WindDir_IsbL-0010_LatLon0.15_PT000H.grib2 2026-04-13 16:09 861K
20260413T12Z_MSC_GDPS_WindDir_IsbL-0020_LatLon0.15_PT000H.grib2 2026-04-13 16:09 925K
20260413T12Z_MSC_GDPS_WindDir_IsbL-0030_LatLon0.15_PT000H.grib2 2026-04-13 16:09 891K
20260413T12Z_MSC_GDPS_WindDir_IsbL-0050_LatLon0.15_PT000H.grib2 2026-04-13 16:09 959K
20260413T12Z_MSC_GDPS_WindDir_IsbL-0100_LatLon0.15_PT000H.grib2 2026-04-13 16:09 1.0M
20260413T12Z_MSC_GDPS_WindDir_IsbL-0150_LatLon0.15_PT000H.grib2 2026-04-13 16:09 1.0M
20260413T12Z_MSC_GDPS_WindDir_IsbL-0175_LatLon0.15_PT000H.grib2 2026-04-13 16:09 1.0M
20260413T12Z_MSC_GDPS_WindDir_IsbL-0200_LatLon0.15_PT000H.grib2 2026-04-13 16:09 1.1M
20260413T12Z_MSC_GDPS_WindDir_IsbL-0225_LatLon0.15_PT000H.grib2 2026-04-13 16:09 1.1M
20260413T12Z_MSC_GDPS_WindDir_IsbL-0250_LatLon0.15_PT000H.grib2 2026-04-13 16:09 1.1M
20260413T12Z_MSC_GDPS_WindDir_IsbL-0275_LatLon0.15_PT000H.grib2 2026-04-13 16:09 1.2M
20260413T12Z_MSC_GDPS_WindDir_IsbL-0300_LatLon0.15_PT000H.grib2 2026-04-13 16:09 1.2M
20260413T12Z_MSC_GDPS_WindDir_IsbL-0350_LatLon0.15_PT000H.grib2 2026-04-13 16:09 1.2M
20260413T12Z_MSC_GDPS_WindDir_IsbL-0400_LatLon0.15_PT000H.grib2 2026-04-13 16:09 1.3M
20260413T12Z_MSC_GDPS_WindDir_IsbL-0450_LatLon0.15_PT000H.grib2 2026-04-13 16:09 1.3M
20260413T12Z_MSC_GDPS_WindDir_IsbL-0500_LatLon0.15_PT000H.grib2 2026-04-13 16:09 1.3M
20260413T12Z_MSC_GDPS_WindDir_IsbL-0550_LatLon0.15_PT000H.grib2 2026-04-13 16:09 1.4M
20260413T12Z_MSC_GDPS_WindDir_IsbL-0600_LatLon0.15_PT000H.grib2 2026-04-13 16:09 1.5M
20260413T12Z_MSC_GDPS_WindDir_IsbL-0650_LatLon0.15_PT000H.grib2 2026-04-13 16:09 1.5M
20260413T12Z_MSC_GDPS_WindDir_IsbL-0700_LatLon0.15_PT000H.grib2 2026-04-13 16:09 1.6M
20260413T12Z_MSC_GDPS_WindDir_IsbL-0750_LatLon0.15_PT000H.grib2 2026-04-13 16:09 1.7M
20260413T12Z_MSC_GDPS_WindDir_IsbL-0800_LatLon0.15_PT000H.grib2 2026-04-13 16:09 1.8M
20260413T12Z_MSC_GDPS_WindDir_IsbL-0850_LatLon0.15_PT000H.grib2 2026-04-13 16:09 1.9M
20260413T12Z_MSC_GDPS_WindDir_IsbL-0875_LatLon0.15_PT000H.grib2 2026-04-13 16:09 1.9M
20260413T12Z_MSC_GDPS_WindDir_IsbL-0900_LatLon0.15_PT000H.grib2 2026-04-13 16:09 1.9M
20260413T12Z_MSC_GDPS_WindDir_IsbL-0925_LatLon0.15_PT000H.grib2 2026-04-13 16:09 2.0M
20260413T12Z_MSC_GDPS_WindDir_IsbL-0950_LatLon0.15_PT000H.grib2 2026-04-13 16:09 2.0M
20260413T12Z_MSC_GDPS_WindDir_IsbL-0970_LatLon0.15_PT000H.grib2 2026-04-13 16:09 2.0M
20260413T12Z_MSC_GDPS_WindDir_IsbL-0985_LatLon0.15_PT000H.grib2 2026-04-13 16:09 2.0M
20260413T12Z_MSC_GDPS_WindDir_IsbL-1000_LatLon0.15_PT000H.grib2 2026-04-13 16:09 2.1M
20260413T12Z_MSC_GDPS_WindDir_IsbL-1015_LatLon0.15_PT000H.grib2 2026-04-13 16:09 2.1M
20260413T12Z_MSC_GDPS_WindGust-Max_AGL-10m_LatLon0.15_PT000H.grib2 2026-04-13 16:09 2.1M
20260413T12Z_MSC_GDPS_WindGust-Min_AGL-10m_LatLon0.15_PT000H.grib2 2026-04-13 16:09 2.2M
20260413T12Z_MSC_GDPS_WindGust_AGL-10m_LatLon0.15_PT000H.grib2 2026-04-13 16:09 2.2M
20260413T12Z_MSC_GDPS_WindSpeed_AGL-10m_LatLon0.15_PT000H.grib2 2026-04-13 16:09 1.1M
20260413T12Z_MSC_GDPS_WindSpeed_AGL-120m_LatLon0.15_PT000H.grib2 2026-04-13 16:09 1.2M
20260413T12Z_MSC_GDPS_WindSpeed_AGL-40m_LatLon0.15_PT000H.grib2 2026-04-13 16:09 1.2M
20260413T12Z_MSC_GDPS_WindSpeed_AGL-80m_LatLon0.15_PT000H.grib2 2026-04-13 16:09 1.2M
20260413T12Z_MSC_GDPS_WindSpeed_IsbL-0001_LatLon0.15_PT000H.grib2 2026-04-13 16:09 635K
20260413T12Z_MSC_GDPS_WindSpeed_IsbL-0005_LatLon0.15_PT000H.grib2 2026-04-13 16:09 615K
20260413T12Z_MSC_GDPS_WindSpeed_IsbL-0010_LatLon0.15_PT000H.grib2 2026-04-13 16:09 639K
20260413T12Z_MSC_GDPS_WindSpeed_IsbL-0020_LatLon0.15_PT000H.grib2 2026-04-13 16:09 875K
20260413T12Z_MSC_GDPS_WindSpeed_IsbL-0030_LatLon0.15_PT000H.grib2 2026-04-13 16:09 866K
20260413T12Z_MSC_GDPS_WindSpeed_IsbL-0050_LatLon0.15_PT000H.grib2 2026-04-13 16:09 921K
20260413T12Z_MSC_GDPS_WindSpeed_IsbL-0100_LatLon0.15_PT000H.grib2 2026-04-13 16:09 1.1M
20260413T12Z_MSC_GDPS_WindSpeed_IsbL-0150_LatLon0.15_PT000H.grib2 2026-04-13 16:09 1.0M
20260413T12Z_MSC_GDPS_WindSpeed_IsbL-0175_LatLon0.15_PT000H.grib2 2026-04-13 16:09 1.0M
20260413T12Z_MSC_GDPS_WindSpeed_IsbL-0200_LatLon0.15_PT000H.grib2 2026-04-13 16:09 1.1M
20260413T12Z_MSC_GDPS_WindSpeed_IsbL-0225_LatLon0.15_PT000H.grib2 2026-04-13 16:09 1.1M
20260413T12Z_MSC_GDPS_WindSpeed_IsbL-0250_LatLon0.15_PT000H.grib2 2026-04-13 16:09 1.1M
20260413T12Z_MSC_GDPS_WindSpeed_IsbL-0275_LatLon0.15_PT000H.grib2 2026-04-13 16:09 1.1M
20260413T12Z_MSC_GDPS_WindSpeed_IsbL-0300_LatLon0.15_PT000H.grib2 2026-04-13 16:09 1.1M
20260413T12Z_MSC_GDPS_WindSpeed_IsbL-0350_LatLon0.15_PT000H.grib2 2026-04-13 16:09 1.1M
20260413T12Z_MSC_GDPS_WindSpeed_IsbL-0400_LatLon0.15_PT000H.grib2 2026-04-13 16:09 1.1M
20260413T12Z_MSC_GDPS_WindSpeed_IsbL-0450_LatLon0.15_PT000H.grib2 2026-04-13 16:09 1.1M
20260413T12Z_MSC_GDPS_WindSpeed_IsbL-0500_LatLon0.15_PT000H.grib2 2026-04-13 16:09 1.1M
20260413T12Z_MSC_GDPS_WindSpeed_IsbL-0550_LatLon0.15_PT000H.grib2 2026-04-13 16:09 1.1M
20260413T12Z_MSC_GDPS_WindSpeed_IsbL-0600_LatLon0.15_PT000H.grib2 2026-04-13 16:09 1.1M
20260413T12Z_MSC_GDPS_WindSpeed_IsbL-0650_LatLon0.15_PT000H.grib2 2026-04-13 16:09 1.2M
20260413T12Z_MSC_GDPS_WindSpeed_IsbL-0700_LatLon0.15_PT000H.grib2 2026-04-13 16:09 1.5M
20260413T12Z_MSC_GDPS_WindSpeed_IsbL-0750_LatLon0.15_PT000H.grib2 2026-04-13 16:09 1.6M
20260413T12Z_MSC_GDPS_WindSpeed_IsbL-0800_LatLon0.15_PT000H.grib2 2026-04-13 16:09 1.7M
20260413T12Z_MSC_GDPS_WindSpeed_IsbL-0850_LatLon0.15_PT000H.grib2 2026-04-13 16:09 1.7M
20260413T12Z_MSC_GDPS_WindSpeed_IsbL-0875_LatLon0.15_PT000H.grib2 2026-04-13 16:09 1.8M
20260413T12Z_MSC_GDPS_WindSpeed_IsbL-0900_LatLon0.15_PT000H.grib2 2026-04-13 16:09 1.8M
20260413T12Z_MSC_GDPS_WindSpeed_IsbL-0925_LatLon0.15_PT000H.grib2 2026-04-13 16:09 1.8M
20260413T12Z_MSC_GDPS_WindSpeed_IsbL-0950_LatLon0.15_PT000H.grib2 2026-04-13 16:09 1.8M
20260413T12Z_MSC_GDPS_WindSpeed_IsbL-0970_LatLon0.15_PT000H.grib2 2026-04-13 16:09 1.9M
20260413T12Z_MSC_GDPS_WindSpeed_IsbL-0985_LatLon0.15_PT000H.grib2 2026-04-13 16:09 1.8M
20260413T12Z_MSC_GDPS_WindSpeed_IsbL-1000_LatLon0.15_PT000H.grib2 2026-04-13 16:09 1.8M
20260413T12Z_MSC_GDPS_WindSpeed_IsbL-1015_LatLon0.15_PT000H.grib2 2026-04-13 16:09 1.8M
20260413T12Z_MSC_GDPS_WindU_AGL-10m_LatLon0.15_PT000H.grib2 2026-04-13 16:09 1.3M
20260413T12Z_MSC_GDPS_WindU_AGL-120m_LatLon0.15_PT000H.grib2 2026-04-13 16:09 1.0M
20260413T12Z_MSC_GDPS_WindU_AGL-40m_LatLon0.15_PT000H.grib2 2026-04-13 16:09 948K
20260413T12Z_MSC_GDPS_WindU_AGL-80m_LatLon0.15_PT000H.grib2 2026-04-13 16:09 1.0M
20260413T12Z_MSC_GDPS_WindU_IsbL-0001_LatLon0.15_PT000H.grib2 2026-04-13 16:09 500K
20260413T12Z_MSC_GDPS_WindU_IsbL-0005_LatLon0.15_PT000H.grib2 2026-04-13 16:09 696K
20260413T12Z_MSC_GDPS_WindU_IsbL-0010_LatLon0.15_PT000H.grib2 2026-04-13 16:09 710K
20260413T12Z_MSC_GDPS_WindU_IsbL-0020_LatLon0.15_PT000H.grib2 2026-04-13 16:09 749K
20260413T12Z_MSC_GDPS_WindU_IsbL-0030_LatLon0.15_PT000H.grib2 2026-04-13 16:09 744K
20260413T12Z_MSC_GDPS_WindU_IsbL-0050_LatLon0.15_PT000H.grib2 2026-04-13 16:09 710K
20260413T12Z_MSC_GDPS_WindU_IsbL-0100_LatLon0.15_PT000H.grib2 2026-04-13 16:09 928K
20260413T12Z_MSC_GDPS_WindU_IsbL-0150_LatLon0.15_PT000H.grib2 2026-04-13 16:09 1.0M
20260413T12Z_MSC_GDPS_WindU_IsbL-0175_LatLon0.15_PT000H.grib2 2026-04-13 16:09 1.0M
20260413T12Z_MSC_GDPS_WindU_IsbL-0200_LatLon0.15_PT000H.grib2 2026-04-13 16:09 842K
20260413T12Z_MSC_GDPS_WindU_IsbL-0225_LatLon0.15_PT000H.grib2 2026-04-13 16:09 853K
20260413T12Z_MSC_GDPS_WindU_IsbL-0250_LatLon0.15_PT000H.grib2 2026-04-13 16:09 857K
20260413T12Z_MSC_GDPS_WindU_IsbL-0275_LatLon0.15_PT000H.grib2 2026-04-13 16:09 885K
20260413T12Z_MSC_GDPS_WindU_IsbL-0300_LatLon0.15_PT000H.grib2 2026-04-13 16:09 877K
20260413T12Z_MSC_GDPS_WindU_IsbL-0350_LatLon0.15_PT000H.grib2 2026-04-13 16:09 895K
20260413T12Z_MSC_GDPS_WindU_IsbL-0400_LatLon0.15_PT000H.grib2 2026-04-13 16:09 898K
20260413T12Z_MSC_GDPS_WindU_IsbL-0450_LatLon0.15_PT000H.grib2 2026-04-13 16:09 900K
20260413T12Z_MSC_GDPS_WindU_IsbL-0500_LatLon0.15_PT000H.grib2 2026-04-13 16:09 1.1M
20260413T12Z_MSC_GDPS_WindU_IsbL-0550_LatLon0.15_PT000H.grib2 2026-04-13 16:09 1.1M
20260413T12Z_MSC_GDPS_WindU_IsbL-0600_LatLon0.15_PT000H.grib2 2026-04-13 16:09 1.1M
20260413T12Z_MSC_GDPS_WindU_IsbL-0650_LatLon0.15_PT000H.grib2 2026-04-13 16:09 1.2M
20260413T12Z_MSC_GDPS_WindU_IsbL-0700_LatLon0.15_PT000H.grib2 2026-04-13 16:09 1.2M
20260413T12Z_MSC_GDPS_WindU_IsbL-0750_LatLon0.15_PT000H.grib2 2026-04-13 16:09 1.3M
20260413T12Z_MSC_GDPS_WindU_IsbL-0800_LatLon0.15_PT000H.grib2 2026-04-13 16:09 1.4M
20260413T12Z_MSC_GDPS_WindU_IsbL-0850_LatLon0.15_PT000H.grib2 2026-04-13 16:09 1.4M
20260413T12Z_MSC_GDPS_WindU_IsbL-0875_LatLon0.15_PT000H.grib2 2026-04-13 16:09 1.4M
20260413T12Z_MSC_GDPS_WindU_IsbL-0900_LatLon0.15_PT000H.grib2 2026-04-13 16:09 1.5M
20260413T12Z_MSC_GDPS_WindU_IsbL-0925_LatLon0.15_PT000H.grib2 2026-04-13 16:09 1.4M
20260413T12Z_MSC_GDPS_WindU_IsbL-0950_LatLon0.15_PT000H.grib2 2026-04-13 16:09 1.4M
20260413T12Z_MSC_GDPS_WindU_IsbL-0970_LatLon0.15_PT000H.grib2 2026-04-13 16:09 1.4M
20260413T12Z_MSC_GDPS_WindU_IsbL-0985_LatLon0.15_PT000H.grib2 2026-04-13 16:09 1.4M
20260413T12Z_MSC_GDPS_WindU_IsbL-1000_LatLon0.15_PT000H.grib2 2026-04-13 16:09 1.4M
20260413T12Z_MSC_GDPS_WindU_IsbL-1015_LatLon0.15_PT000H.grib2 2026-04-13 16:09 1.4M
20260413T12Z_MSC_GDPS_WindV_AGL-10m_LatLon0.15_PT000H.grib2 2026-04-13 16:09 1.6M
20260413T12Z_MSC_GDPS_WindV_AGL-120m_LatLon0.15_PT000H.grib2 2026-04-13 16:09 957K
20260413T12Z_MSC_GDPS_WindV_AGL-40m_LatLon0.15_PT000H.grib2 2026-04-13 16:09 1.2M
20260413T12Z_MSC_GDPS_WindV_AGL-80m_LatLon0.15_PT000H.grib2 2026-04-13 16:09 956K
20260413T12Z_MSC_GDPS_WindV_IsbL-0001_LatLon0.15_PT000H.grib2 2026-04-13 16:09 546K
20260413T12Z_MSC_GDPS_WindV_IsbL-0005_LatLon0.15_PT000H.grib2 2026-04-13 16:09 778K
20260413T12Z_MSC_GDPS_WindV_IsbL-0010_LatLon0.15_PT000H.grib2 2026-04-13 16:09 810K
20260413T12Z_MSC_GDPS_WindV_IsbL-0020_LatLon0.15_PT000H.grib2 2026-04-13 16:09 867K
20260413T12Z_MSC_GDPS_WindV_IsbL-0030_LatLon0.15_PT000H.grib2 2026-04-13 16:09 861K
20260413T12Z_MSC_GDPS_WindV_IsbL-0050_LatLon0.15_PT000H.grib2 2026-04-13 16:09 914K
20260413T12Z_MSC_GDPS_WindV_IsbL-0100_LatLon0.15_PT000H.grib2 2026-04-13 16:09 1.1M
20260413T12Z_MSC_GDPS_WindV_IsbL-0150_LatLon0.15_PT000H.grib2 2026-04-13 16:09 1.0M
20260413T12Z_MSC_GDPS_WindV_IsbL-0175_LatLon0.15_PT000H.grib2 2026-04-13 16:09 810K
20260413T12Z_MSC_GDPS_WindV_IsbL-0200_LatLon0.15_PT000H.grib2 2026-04-13 16:09 841K
20260413T12Z_MSC_GDPS_WindV_IsbL-0225_LatLon0.15_PT000H.grib2 2026-04-13 16:09 849K
20260413T12Z_MSC_GDPS_WindV_IsbL-0250_LatLon0.15_PT000H.grib2 2026-04-13 16:09 850K
20260413T12Z_MSC_GDPS_WindV_IsbL-0275_LatLon0.15_PT000H.grib2 2026-04-13 16:09 878K
20260413T12Z_MSC_GDPS_WindV_IsbL-0300_LatLon0.15_PT000H.grib2 2026-04-13 16:09 871K
20260413T12Z_MSC_GDPS_WindV_IsbL-0350_LatLon0.15_PT000H.grib2 2026-04-13 16:09 886K
20260413T12Z_MSC_GDPS_WindV_IsbL-0400_LatLon0.15_PT000H.grib2 2026-04-13 16:09 891K
20260413T12Z_MSC_GDPS_WindV_IsbL-0450_LatLon0.15_PT000H.grib2 2026-04-13 16:09 893K
20260413T12Z_MSC_GDPS_WindV_IsbL-0500_LatLon0.15_PT000H.grib2 2026-04-13 16:09 895K
20260413T12Z_MSC_GDPS_WindV_IsbL-0550_LatLon0.15_PT000H.grib2 2026-04-13 16:09 1.1M
20260413T12Z_MSC_GDPS_WindV_IsbL-0600_LatLon0.15_PT000H.grib2 2026-04-13 16:09 1.1M
20260413T12Z_MSC_GDPS_WindV_IsbL-0650_LatLon0.15_PT000H.grib2 2026-04-13 16:09 1.2M
20260413T12Z_MSC_GDPS_WindV_IsbL-0700_LatLon0.15_PT000H.grib2 2026-04-13 16:09 1.2M
20260413T12Z_MSC_GDPS_WindV_IsbL-0750_LatLon0.15_PT000H.grib2 2026-04-13 16:09 1.3M
20260413T12Z_MSC_GDPS_WindV_IsbL-0800_LatLon0.15_PT000H.grib2 2026-04-13 16:09 1.3M
20260413T12Z_MSC_GDPS_WindV_IsbL-0850_LatLon0.15_PT000H.grib2 2026-04-13 16:09 1.4M
20260413T12Z_MSC_GDPS_WindV_IsbL-0875_LatLon0.15_PT000H.grib2 2026-04-13 16:09 1.4M
20260413T12Z_MSC_GDPS_WindV_IsbL-0900_LatLon0.15_PT000H.grib2 2026-04-13 16:09 1.4M
20260413T12Z_MSC_GDPS_WindV_IsbL-0925_LatLon0.15_PT000H.grib2 2026-04-13 16:09 1.4M
20260413T12Z_MSC_GDPS_WindV_IsbL-0950_LatLon0.15_PT000H.grib2 2026-04-13 16:09 1.4M
20260413T12Z_MSC_GDPS_WindV_IsbL-0970_LatLon0.15_PT000H.grib2 2026-04-13 16:09 1.4M
20260413T12Z_MSC_GDPS_WindV_IsbL-0985_LatLon0.15_PT000H.grib2 2026-04-13 16:09 1.4M
20260413T12Z_MSC_GDPS_WindV_IsbL-1000_LatLon0.15_PT000H.grib2 2026-04-13 16:09 1.4M
20260413T12Z_MSC_GDPS_WindV_IsbL-1015_LatLon0.15_PT000H.grib2 2026-04-13 16:09 1.7M